Regional Weather Roundup
Issued by NWS Jackson, KY

Home | Current Version | Previous Version | Graphics & Text | Print | Product List | Glossary On
Versions: 1 2 3 4 5 6 7 8 9 10 11 12 13 14 15 16 17 18 19 20 21 22 23 24 25 26 27 28 29 30 31 32 33 34 35 36 37 38 39 40 41 42 43 44 45 46 47 48 49 50
000
ASUS43 KJKL 241310
RWRJKL

EAST KENTUCKY HOURLY WEATHER ROUNDUP
NATIONAL WEATHER SERVICE JACKSON KY
900 AM EDT FRI APR 24 2015

NOTE: "FAIR" INDICATES FEW OR NO CLOUDS BELOW 12,000 FEET WITH
NO SIGNIFICANT WEATHER AND/OR OBSTRUCTIONS TO VISIBILITY.

* THESE REPORTS ARE NOT UNDER NWS QUALITY CONTROL AND MAY NOT
  REPORT WEATHER SUCH AS PRECIPITATION AND FOG.

KYZ079-080-083-085-087-088-110-112-115-119-120-241400
...EASTERN KENTUCKY...

CITY           SKY/WX    TMP DP  RH WIND       PRES   REMARKS
JACKSON        MOSUNNY   44  24  45 VRB5      30.14R
LONDON         SUNNY     43  28  55 CALM      30.14R
SOMERSET*      SUNNY     39  32  75 CALM      30.16R
MONTICELLO*    SUNNY     42  34  73 CALM      30.17R
MIDDLESBORO*   SUNNY     38  33  82 CALM      30.15S
HARLAN APT*    SUNNY     37  30  75 CALM      30.14R
HAZARD APT*    SUNNY     41  32  70 CALM      30.15R
BLACK MTN*       N/A     37  18  44 VRB7        N/A  WCI  32
PIKEVILLE APT* SUNNY     43  23  45 NE3       30.14R
BIG SANDY*     SUNNY     45  22  40 NE6       30.15R
MOREHEAD APT*  SUNNY     43  27  52 SE3       30.17S
$$

KYZ035-036-041-042-044-050-067-078-099-241400
...CENTRAL KENTUCKY...

CITY           SKY/WX    TMP DP  RH WIND       PRES   REMARKS
MT STERLING*   MOSUNNY   43  25  49 SE5       30.16R
FLEMING/MASON* SUNNY     43  28  56 SE6       30.16F
DANVILLE*      SUNNY     41  32  70 CALM      30.16R
RICHMOND*      SUNNY     41  28  60 CALM      30.14R
LEXINGTON      MOSUNNY   45  30  55 SE6       30.14R
FRANKFORT      MOSUNNY   42  33  70 CALM      30.13R
$$

KYZ091>093-OHZ055-061-077-WVZ005-015-034-035-042-241400
...SOUTHERN OHIO/WEST VIRGINIA...

CITY           SKY/WX    TMP DP  RH WIND       PRES   REMARKS
COVINGTON      MOSUNNY   45  29  53 SE7       30.14S
COLUMBUS       SUNNY     38  26  62 SW5       30.14R WCI  34
DAYTON         SUNNY     43  26  51 SW9       30.14R
WILMINGTON     SUNNY     42  27  55 S5        30.13F
HUNTINGTON     SUNNY     43  29  57 CALM      30.15S
CHARLESTON     SUNNY     42  31  64 CALM      30.15R
PINEVILLE*     SUNNY     43  23  45 MISG      30.17R
BECKLEY        SUNNY     40  14  34 N9        30.08R WCI  34
BLUEFIELD      SUNNY     40  17  39 NW8       30.09R WCI  34
$$

VAZ002-007-008-TNZ017-027-036-066-071-241400
...SOUTHWEST VIRGINIA/EAST TENNESSEE...

CITY           SKY/WX    TMP DP  RH WIND       PRES   REMARKS
WISE*          SUNNY     41  19  42 N8        30.11S
JONESVILLE*    SUNNY     37  32  81 CALM      30.16R
ABINGDON*      SUNNY     45  21  39 CALM      30.11R
BRISTOL        MOSUNNY   44  28  53 CALM      30.13R
KNOXVILLE      MOSUNNY   49  31  49 N7        30.13R
OAK RIDGE      SUNNY     48  34  58 CALM      30.15R
CROSSVILLE     SUNNY     47  24  40 CALM      30.13R
NASHVILLE      MOSUNNY   50  37  61 E6        30.12S
$$

...KEY TO REMARKS...
VSB - VISIBILITY IN MILES
WCI - WIND CHILL INDEX
HX  - HEAT INDEX

$$


USA.gov is the U.S. government's official web portal to all federal, state and local government web resources and services.